Temp
10 10 10 10 10 10 10 9 9 9 9 9 9 9 9 8 8 8 8 8 7 7 6 6 6 6 5 4 4 3 4 4 4 3 3 3 3 2 2 2 2 2 2 1 1 1 0 0 0 -0 -0 -0 -0 -1 -1 -1 -1 -1 -1 -2 -2 -2 -2 -2 -2 -2 -2 -2 -3
10 10 10 10 10 10 9 9 9 9 9 9 9 9 9 8 8 8 7 7 7 6 6 6 6 5 4 4 4 4 4 4 3 3 3 3 2 2 2 2 2 2 1 1 1 0 0 0 -0 -0 -0 -0 -0 -1 -1 -1 -1 -1 -1 -2 -2 -2 -2 -2 -2 -2 -2 -3 -3
10 10 10 10 10 10 9 9 9 9 9 9 9 9 9 8 8 8 7 7 7 7 7 6 6 5 4 4 4 4 4 3 3 3 3 3 2 2 2 2 2 1 1 1 1 0 0 -0 -0 -0 -0 -0 -1 -1 -1 -1 -1 -1 -2 -2 -2 -2 -2 -2 -2 -2 -3 -3 -3
10 10 10 10 10 9 9 9 9 9 9 9 9 9 8 8 8 7 7 7 7 7 7 6 5 4 4 4 4 4 4 3 3 3 3 2 2 2 2 2 1 1 1 1 0 0 -0 -0 -0 -0 -0 -1 -1 -1 -1 -1 -1 -2 -2 -2 -2 -2 -2 -2 -2 -3 -3 -3 -3
10 10 10 10 9 9 9 9 9 9 9 9 8 8 8 8 7 7 7 7 7 7 6 5 5 4 4 4 4 4 3 3 3 3 3 2 2 2 2 2 1 1 1 0 0 -0 -0 -0 -0 -1 -1 -1 -1 -1 -1 -1 -2 -2 -2 -2 -2 -2 -2 -2 -2 -3 -3 -3 -3
10 10 10 9 9 9 9 9 9 9 8 8 8 8 8 7 7 7 7 7 7 6 5 5 5 4 4 4 4 4 3 3 3 3 3 2 2 2 2 1 1 1 1 0 0 -0 -0 -0 -0 -1 -1 -1 -1 -1 -1 -1 -2 -2 -2 -2 -2 -2 -2 -2 -3 -3 -3 -3 -3
10 10 10 9 9 9 9 9 9 8 8 8 8 8 7 7 7 7 7 7 6 6 5 5 4 4 4 4 4 3 3 3 3 3 2 2 2 2 2 1 1 1 0 0 0 -0 -0 -0 -0 -1 -1 -1 -1 -1 -1 -2 -2 -2 -2 -2 -2 -2 -2 -2 -3 -3 -3 -3 -3
10 10 10 10 9 9 9 9 8 8 8 8 8 7 7 7 7 7 7 6 6 5 5 4 4 4 4 4 3 3 3 3 3 2 2 2 2 2 1 1 1 1 0 0 -0 -0 -0 -0 -0 -1 -1 -1 -1 -1 -2 -2 -2 -2 -2 -2 -2 -2 -3 -3 -3 -3 -3 -3 -3
10 10 10 9 9 9 9 9 8 8 8 8 8 7 7 7 7 7 7 6 5 5 5 4 4 4 4 4 3 3 3 3 2 2 2 2 2 1 1 1 1 0 0 0 -0 -0 -0 -0 -1 -1 -1 -1 -1 -2 -2 -2 -2 -2 -2 -2 -2 -3 -3 -3 -3 -3 -3 -3 -4
10 10 9 9 9 9 9 9 8 8 8 8 8 7 7 7 7 7 6 5 5 5 4 4 4 4 4 3 3 3 3 3 2 2 2 2 1 1 1 1 0 0 0 -0 -0 -0 -0 -1 -1 -1 -1 -1 -1 -2 -2 -2 -2 -2 -2 -2 -3 -3 -3 -3 -3 -3 -3 -4 -4
10 10 9 9 9 9 9 8 8 8 8 8 7 7 7 7 7 6 5 5 5 4 4 4 4 4 3 3 3 3 3 2 2 2 2 1 1 1 1 1 0 0 0 -0 -0 -0 -1 -1 -1 -1 -1 -1 -2 -2 -2 -2 -2 -2 -2 -2 -2 -3 -3 -3 -3 -3 -3 -4 -4
10 9 9 9 9 9 8 8 8 8 8 7 7 7 7 7 6 5 5 5 4 4 4 4 3 3 3 3 3 3 2 2 2 2 2 1 1 1 1 0 0 0 -0 -0 -0 -1 -1 -1 -1 -1 -1 -2 -2 -2 -2 -2 -2 -2 -2 -2 -3 -3 -3 -3 -3 -3 -3 -4 -4
10 9 9 9 9 8 8 8 8 8 7 7 7 7 6 6 5 5 5 4 4 4 3 3 3 3 3 3 2 2 2 2 2 1 1 1 1 1 1 0 0 0 -0 -0 -0 -1 -1 -1 -1 -1 -1 -2 -2 -2 -2 -2 -2 -2 -2 -3 -3 -3 -3 -3 -3 -4 -4 -4 -4
10 9 9 9 8 8 8 8 7 7 7 7 7 6 6 5 5 5 4 4 3 3 3 3 2 2 2 2 2 2 2 2 1 1 1 1 1 1 0 0 0 -0 -0 -0 -1 -1 -1 -1 -1 -1 -1 -2 -2 -2 -2 -2 -2 -2 -3 -3 -3 -3 -3 -4 -4 -4 -4 -4 -4
9 9 8 8 8 8 7 7 7 7 7 7 6 6 5 5 5 4 4 3 3 3 3 2 2 2 2 2 2 2 1 1 1 1 1 1 0 0 0 0 -0 -0 -0 -1 -1 -1 -1 -1 -1 -1 -2 -2 -2 -2 -2 -2 -3 -3 -3 -3 -3 -3 -4 -4 -4 -4 -4 -4 -4
9 8 8 8 8 7 7 7 7 7 6 6 6 5 5 5 4 4 4 3 3 3 2 2 2 2 2 1 1 1 1 1 1 1 1 0 0 0 0 -0 -0 -0 -0 -1 -1 -1 -1 -1 -1 -1 -2 -2 -2 -2 -2 -2 -3 -3 -3 -3 -3 -3 -4 -4 -4 -4 -4 -4 -4
8 8 8 7 7 7 7 7 7 6 6 5 5 5 5 4 4 4 3 3 3 2 2 2 2 1 1 1 1 1 1 1 1 0 0 0 0 0 -0 -0 -0 -0 -1 -1 -1 -1 -1 -1 -1 -1 -2 -2 -2 -2 -2 -2 -3 -3 -3 -3 -3 -3 -4 -4 -4 -4 -4 -4 -4
8 8 7 7 7 7 7 7 6 6 6 5 5 4 4 4 4 3 3 3 2 2 2 2 1 1 1 1 1 1 1 1 0 0 0 0 0 -0 -0 -0 -0 -1 -1 -1 -1 -1 -1 -1 -1 -2 -2 -2 -2 -2 -2 -3 -3 -3 -3 -3 -3 -4 -4 -4 -4 -4 -4 -4 -4
8 7 7 7 7 7 7 6 6 6 5 5 4 4 4 3 3 3 3 3 2 2 2 2 1 1 1 1 1 1 1 0 0 0 0 0 -0 -0 -0 -0 -1 -1 -1 -1 -1 -1 -1 -1 -2 -2 -2 -2 -2 -2 -3 -3 -3 -3 -3 -3 -4 -4 -4 -4 -5 -5 -5 -4 -4
7 7 7 7 7 6 6 6 5 5 5 4 4 4 4 3 3 3 3 2 2 2 2 2 1 1 1 1 1 1 1 0 0 0 0 0 -0 -0 -0 -0 -1 -1 -1 -1 -1 -1 -2 -2 -2 -2 -2 -2 -2 -3 -3 -3 -3 -3 -3 -4 -4 -4 -5 -5 -5 -5 -5 -5 -5
7 7 7 7 6 6 6 5 5 5 4 4 4 4 4 3 3 3 3 2 2 2 2 1 1 1 1 1 1 1 0 0 0 0 0 -0 -0 -0 -0 -0 -1 -1 -1 -1 -1 -1 -2 -2 -2 -2 -2 -2 -3 -3 -3 -3 -3 -4 -4 -4 -5 -5 -5 -5 -5 -5 -5 -5 -5
7 7 7 6 6 6 5 5 5 4 4 4 4 4 4 3 3 3 2 2 2 2 2 1 1 1 1 1 1 1 0 0 0 0 -0 -0 -0 -0 -0 -1 -1 -1 -1 -1 -1 -1 -1 -2 -2 -2 -2 -2 -3 -3 -3 -3 -4 -4 -4 -5 -5 -5 -5 -5 -5 -5 -5 -5 -5
7 7 7 6 6 5 5 4 4 4 4 4 4 3 3 3 3 2 2 2 2 2 1 1 1 1 1 1 1 0 0 0 -0 -0 -0 -0 -0 -0 -1 -1 -1 -1 -1 -1 -1 -1 -2 -2 -2 -2 -2 -3 -3 -3 -4 -4 -4 -5 -5 -5 -5 -5 -5 -5 -5 -5 -5 -5 -5
7 7 6 6 5 5 4 4 4 4 4 4 3 3 3 2 2 2 2 2 2 2 1 1 1 1 1 1 0 0 0 -0 -0 -0 -0 -0 -0 -1 -1 -1 -1 -1 -1 -1 -2 -2 -2 -2 -2 -2 -2 -3 -3 -3 -4 -4 -5 -5 -5 -5 -5 -5 -5 -5 -5 -5 -5 -5 -5
7 6 6 5 5 4 4 4 4 4 4 3 3 3 2 2 2 2 2 2 2 1 1 1 1 1 1 0 0 0 -0 -0 -0 -0 -0 -1 -1 -1 -1 -1 -1 -1 -1 -2 -2 -2 -2 -2 -2 -2 -3 -3 -3 -4 -4 -4 -5 -5 -5 -5 -5 -5 -5 -5 -5 -5 -5 -5 -5
6 6 5 5 4 4 4 4 4 4 3 3 3 2 2 2 2 2 2 2 1 1 1 1 1 0 0 0 0 -0 -0 -0 -0 -0 -0 -1 -1 -1 -1 -1 -1 -1 -2 -2 -2 -2 -2 -2 -2 -2 -3 -3 -4 -4 -4 -5 -5 -5 -5 -5 -5 -5 -5 -5 -5 -5 -5 -5 -5
6 5 5 4 4 4 4 4 4 3 3 3 2 2 2 2 2 2 2 2 1 1 1 1 0 0 0 0 0 -0 -0 -0 -0 -1 -1 -1 -1 -1 -1 -1 -1 -2 -2 -2 -2 -2 -2 -3 -3 -3 -3 -4 -4 -4 -5 -5 -5 -5 -5 -5 -5 -5 -5 -5 -5 -5 -5 -5 -6
5 5 5 4 4 4 4 4 3 3 3 2 2 2 2 2 2 2 2 1 1 1 1 0 0 0 0 -0 -0 -0 -0 -0 -0 -1 -1 -1 -1 -1 -1 -1 -1 -2 -2 -2 -2 -2 -2 -3 -3 -3 -4 -4 -4 -5 -5 -5 -5 -5 -5 -5 -5 -5 -5 -5 -5 -5 -5 -6 -6
5 5 4 4 4 4 4 3 3 3 2 2 2 2 2 2 2 2 2 1 1 1 1 0 0 0 -0 -0 -0 -0 -0 -0 -1 -1 -1 -1 -1 -1 -1 -1 -2 -2 -2 -2 -2 -2 -3 -3 -3 -3 -4 -4 -4 -5 -5 -5 -5 -5 -5 -5 -5 -5 -5 -5 -6 -6 -6 -6 -6
5 4 4 4 4 4 3 3 3 2 2 2 2 2 2 2 2 2 2 1 1 1 0 0 0 -0 -0 -0 -0 -0 -0 -0 -1 -1 -1 -1 -1 -1 -1 -2 -2 -2 -2 -2 -2 -3 -3 -3 -3 -4 -4 -4 -5 -5 -5 -5 -5 -5 -5 -5 -5 -5 -6 -6 -6 -6 -6 -6 -6
4 4 4 4 4 3 3 3 2 2 2 2 2 2 2 2 2 2 1 1 1 1 0 0 0 -0 -0 -0 -0 -0 -0 -0 -1 -1 -1 -1 -1 -1 -2 -2 -2 -2 -2 -2 -3 -3 -3 -3 -4 -4 -4 -4 -5 -5 -5 -5 -5 -5 -5 -5 -6 -6 -6 -6 -6 -6 -6 -6 -6
4 4 4 4 3 3 3 3 2 2 2 2 2 2 2 2 2 1 1 1 1 0 0 0 -0 -0 -0 -0 -0 -0 -0 -0 -1 -1 -1 -1 -1 -2 -2 -2 -2 -2 -2 -3 -3 -3 -3 -4 -4 -4 -4 -4 -5 -5 -5 -5 -5 -5 -5 -5 -6 -6 -6 -6 -6 -6 -6 -6 -6
4 4 4 3 3 3 3 2 2 2 1 1 2 2 2 2 2 1 1 1 1 0 0 0 -0 -0 -0 -0 -0 -0 -0 -1 -1 -1 -1 -2 -2 -2 -2 -2 -2 -2 -3 -3 -3 -3 -3 -4 -4 -4 -4 -5 -5 -5 -5 -5 -5 -5 -5 -6 -6 -6 -6 -6 -6 -6 -6 -6 -6
4 4 3 3 3 3 2 2 2 2 1 2 2 2 2 2 1 1 1 1 1 0 0 0 -0 -0 -0 -0 -0 -0 -1 -1 -1 -1 -2 -2 -2 -2 -2 -2 -2 -3 -3 -3 -3 -3 -3 -4 -4 -4 -4 -5 -5 -5 -5 -5 -5 -5 -5 -6 -6 -6 -6 -6 -6 -6 -6 -6 -6
4 3 3 3 3 3 2 2 2 2 2 2 2 2 2 1 1 1 1 1 0 0 0 -0 -0 -0 -0 -0 -0 -1 -1 -1 -1 -2 -2 -2 -2 -2 -2 -3 -3 -3 -3 -3 -3 -3 -4 -4 -4 -4 -5 -5 -5 -5 -5 -5 -5 -5 -5 -6 -6 -6 -6 -6 -6 -6 -6 -6 -6
3 3 3 3 3 2 2 2 2 2 2 2 2 2 1 1 1 1 1 1 0 0 0 -0 -0 -0 -0 -0 -1 -1 -1 -1 -2 -2 -2 -2 -2 -3 -3 -3 -3 -3 -3 -3 -3 -4 -4 -4 -4 -4 -5 -5 -5 -5 -5 -5 -5 -5 -6 -6 -6 -6 -6 -6 -6 -6 -6 -6 -6
3 3 3 3 2 2 2 2 2 2 2 2 2 1 1 1 1 1 1 1 0 0 0 0 -0 -0 -0 -1 -1 -1 -2 -2 -2 -2 -2 -3 -3 -3 -3 -3 -3 -3 -3 -3 -4 -4 -4 -4 -4 -4 -5 -5 -5 -5 -5 -5 -5 -5 -6 -6 -6 -6 -6 -6 -7 -7 -6 -6 -6
3 3 3 3 2 2 2 2 2 2 2 1 1 1 1 1 1 1 1 0 0 0 0 0 -0 -0 -0 -1 -1 -2 -2 -2 -2 -2 -3 -3 -3 -3 -3 -3 -3 -3 -3 -4 -4 -4 -4 -4 -4 -4 -5 -5 -5 -5 -5 -5 -5 -5 -6 -6 -6 -6 -6 -7 -7 -7 -7 -7 -7
3 3 3 3 2 2 2 2 2 2 1 1 1 1 1 1 1 1 1 0 0 0 0 0 -0 -0 -1 -1 -1 -2 -2 -2 -2 -3 -3 -3 -3 -3 -3 -3 -3 -4 -4 -4 -4 -4 -4 -4 -4 -4 -4 -5 -5 -5 -5 -5 -5 -5 -6 -6 -6 -6 -6 -7 -7 -7 -7 -7 -7
3 3 3 3 3 2 2 2 2 2 1 1 1 1 1 1 1 1 1 0 0 0 0 -0 -0 -1 -1 -1 -2 -2 -2 -2 -3 -3 -3 -3 -3 -3 -3 -3 -4 -4 -4 -4 -4 -4 -4 -4 -4 -4 -4 -4 -5 -5 -5 -5 -5 -5 -6 -6 -6 -6 -6 -7 -7 -7 -7 -7 -7
3 3 3 3 2 2 2 2 2 1 1 1 1 1 1 1 1 1 0 0 0 0 -0 -0 -0 -1 -1 -2 -2 -2 -2 -3 -3 -3 -3 -3 -3 -3 -3 -4 -4 -4 -4 -4 -4 -4 -4 -4 -4 -4 -4 -4 -5 -5 -5 -5 -5 -5 -6 -6 -6 -6 -6 -7 -7 -7 -7 -7 -7
Height
1544 1544 1544 1545 1545 1545 1546 1546 1547 1547 1548 1549 1549 1550 1550 1550 1550 1550 1550 1550 1550 1549 1549 1549 1549 1548 1548 1547 1547 1547 1547 1547 1547 1546 1546 1545 1544 1544 1544 1543 1543 1542 1541 1541 1540 1540 1539 1539 1538 1538 1537 1537 1536 1535 1535 1534 1534 1533 1532 1532 1531 1530 1530 1529 1529 1528 1528 1527 1526
1543 1544 1544 1544 1545 1545 1546 1546 1546 1546 1547 1548 1549 1549 1549 1549 1549 1549 1549 1549 1549 1549 1548 1548 1547 1547 1547 1546 1547 1547 1547 1547 1546 1546 1545 1544 1544 1543 1543 1542 1542 1541 1541 1540 1539 1539 1539 1538 1538 1537 1537 1536 1535 1535 1534 1533 1533 1532 1532 1531 1530 1530 1529 1529 1528 1527 1527 1526 1525
1542 1543 1544 1544 1544 1545 1545 1545 1546 1546 1546 1547 1548 1548 1549 1549 1549 1549 1549 1549 1548 1548 1547 1547 1546 1546 1546 1546 1546 1546 1546 1546 1545 1545 1544 1544 1543 1542 1542 1541 1541 1540 1540 1539 1539 1539 1538 1538 1537 1536 1536 1535 1534 1534 1533 1533 1532 1532 1531 1530 1529 1529 1529 1528 1527 1527 1526 1525 1524
1542 1542 1543 1543 1544 1544 1545 1545 1546 1546 1546 1546 1547 1547 1547 1548 1548 1548 1548 1548 1547 1547 1546 1545 1545 1545 1545 1545 1546 1546 1545 1545 1544 1544 1543 1543 1542 1542 1541 1541 1540 1540 1539 1539 1538 1538 1537 1537 1536 1536 1535 1534 1534 1533 1532 1532 1531 1531 1530 1529 1529 1528 1528 1527 1526 1526 1525 1524 1523
1541 1542 1543 1543 1544 1544 1545 1545 1546 1546 1546 1546 1546 1546 1547 1547 1547 1547 1547 1546 1546 1545 1544 1544 1544 1544 1544 1545 1545 1545 1544 1544 1544 1543 1543 1542 1541 1541 1540 1540 1539 1539 1539 1538 1537 1537 1536 1536 1535 1534 1534 1533 1533 1532 1532 1531 1530 1530 1529 1529 1528 1528 1527 1526 1525 1525 1524 1523 1522
1541 1542 1542 1543 1544 1544 1545 1545 1546 1546 1546 1546 1546 1546 1546 1546 1546 1546 1545 1545 1544 1544 1543 1543 1544 1544 1544 1544 1544 1544 1544 1543 1543 1543 1542 1541 1541 1540 1539 1539 1539 1538 1538 1537 1536 1536 1535 1535 1534 1534 1533 1532 1532 1531 1530 1530 1529 1529 1528 1528 1527 1527 1526 1525 1524 1524 1523 1522 1521
1541 1541 1542 1543 1544 1544 1544 1545 1545 1545 1545 1545 1545 1545 1545 1545 1545 1544 1544 1543 1543 1543 1543 1543 1543 1543 1543 1543 1543 1543 1543 1543 1542 1542 1541 1540 1540 1539 1539 1539 1538 1537 1537 1536 1535 1535 1534 1534 1533 1533 1532 1531 1531 1530 1530 1529 1529 1528 1528 1527 1526 1525 1525 1524 1523 1522 1522 1521 1520
1540 1541 1542 1542 1543 1543 1544 1544 1544 1544 1544 1544 1544 1544 1544 1544 1543 1543 1542 1542 1542 1542 1542 1542 1542 1542 1542 1542 1542 1542 1542 1541 1541 1540 1540 1539 1539 1539 1538 1538 1537 1537 1536 1535 1535 1534 1533 1533 1532 1532 1531 1531 1530 1529 1529 1528 1528 1527 1526 1526 1525 1524 1523 1523 1522 1521 1520 1519 1519
1540 1540 1541 1542 1542 1542 1543 1543 1543 1543 1544 1544 1543 1543 1543 1543 1542 1542 1541 1541 1541 1541 1541 1542 1542 1542 1542 1541 1541 1541 1541 1540 1540 1539 1539 1539 1538 1538 1537 1537 1536 1536 1535 1534 1534 1533 1533 1532 1531 1531 1530 1530 1529 1529 1528 1528 1527 1526 1525 1524 1524 1523 1522 1521 1520 1519 1519 1518 1517
1539 1539 1540 1540 1541 1541 1542 1542 1542 1542 1542 1542 1542 1542 1542 1541 1541 1540 1540 1540 1540 1541 1541 1541 1541 1541 1541 1540 1540 1540 1539 1539 1539 1539 1538 1538 1537 1537 1537 1536 1536 1535 1534 1534 1533 1532 1532 1531 1530 1530 1529 1529 1528 1528 1527 1526 1526 1525 1524 1523 1523 1522 1520 1519 1519 1518 1517 1516 1516
1538 1539 1539 1539 1539 1540 1540 1540 1541 1541 1541 1541 1541 1541 1540 1540 1540 1540 1540 1540 1540 1540 1540 1540 1540 1540 1540 1539 1539 1539 1539 1538 1538 1538 1537 1537 1537 1536 1536 1535 1535 1534 1534 1533 1532 1532 1531 1530 1530 1529 1529 1528 1527 1527 1526 1525 1524 1524 1523 1522 1521 1520 1519 1518 1517 1516 1515 1514 1514
1537 1537 1538 1538 1538 1539 1539 1539 1539 1539 1540 1540 1540 1539 1539 1539 1539 1539 1539 1539 1539 1539 1539 1539 1539 1539 1539 1539 1539 1538 1538 1537 1537 1537 1536 1536 1536 1535 1535 1535 1534 1534 1533 1532 1531 1531 1530 1529 1529 1528 1528 1527 1526 1525 1524 1524 1523 1522 1521 1520 1520 1519 1518 1517 1516 1515 1514 1513 1512
1535 1536 1536 1536 1537 1537 1537 1538 1538 1538 1539 1539 1539 1539 1539 1538 1538 1539 1539 1539 1539 1539 1539 1539 1539 1539 1539 1538 1538 1537 1537 1537 1536 1536 1536 1535 1535 1535 1534 1534 1534 1533 1532 1531 1530 1530 1529 1529 1528 1527 1526 1526 1525 1524 1524 1523 1521 1521 1520 1519 1519 1518 1517 1516 1515 1514 1513 1512 1511
1533 1534 1534 1534 1535 1535 1536 1536 1537 1537 1537 1537 1538 1538 1538 1538 1538 1538 1538 1538 1538 1538 1538 1538 1538 1538 1538 1538 1537 1537 1536 1536 1535 1535 1535 1534 1534 1534 1533 1533 1532 1532 1531 1530 1529 1529 1528 1527 1527 1526 1525 1525 1524 1523 1522 1521 1520 1519 1519 1518 1517 1517 1516 1515 1514 1513 1512 1511 1509
1531 1532 1532 1533 1533 1534 1534 1535 1535 1536 1536 1536 1537 1537 1537 1537 1537 1537 1538 1538 1538 1538 1538 1538 1538 1537 1537 1537 1536 1536 1535 1535 1534 1534 1534 1533 1533 1533 1532 1532 1531 1531 1530 1529 1529 1528 1527 1526 1526 1525 1524 1524 1523 1522 1521 1520 1519 1518 1517 1516 1516 1515 1515 1514 1513 1512 1511 1509 1508
1530 1530 1531 1531 1532 1532 1533 1533 1534 1534 1534 1535 1535 1536 1536 1536 1536 1537 1537 1537 1537 1537 1537 1537 1536 1536 1536 1535 1535 1534 1534 1534 1533 1533 1533 1532 1532 1531 1531 1530 1530 1529 1529 1528 1528 1527 1526 1525 1525 1524 1524 1523 1522 1520 1519 1518 1517 1516 1515 1515 1514 1514 1513 1513 1512 1510 1509 1508 1506
1529 1529 1530 1530 1531 1531 1532 1532 1532 1533 1533 1533 1534 1534 1535 1535 1535 1535 1536 1536 1536 1536 1536 1535 1535 1535 1534 1534 1534 1534 1533 1533 1532 1532 1531 1531 1531 1530 1530 1529 1529 1529 1528 1527 1526 1526 1525 1524 1524 1523 1522 1521 1520 1519 1518 1517 1516 1515 1514 1513 1513 1513 1512 1511 1510 1509 1508 1506 1505
1529 1529 1530 1530 1530 1531 1531 1531 1531 1531 1531 1532 1532 1533 1533 1534 1534 1534 1534 1534 1534 1534 1534 1534 1534 1534 1534 1533 1533 1533 1532 1532 1531 1531 1530 1530 1529 1529 1529 1528 1528 1527 1527 1526 1525 1525 1524 1523 1523 1522 1521 1520 1519 1518 1516 1515 1514 1513 1513 1512 1512 1511 1511 1510 1509 1507 1506 1504 1503
1529 1529 1530 1530 1530 1530 1530 1530 1530 1530 1530 1531 1531 1532 1532 1532 1533 1533 1533 1533 1534 1534 1534 1533 1533 1533 1533 1532 1532 1532 1531 1531 1530 1530 1529 1529 1529 1528 1528 1527 1526 1526 1525 1524 1524 1523 1523 1522 1521 1520 1519 1519 1517 1516 1515 1514 1513 1512 1512 1511 1511 1510 1509 1509 1507 1506 1504 1503 1502
1529 1529 1530 1530 1530 1530 1530 1529 1529 1529 1529 1530 1530 1531 1531 1531 1532 1532 1532 1532 1532 1533 1533 1533 1532 1532 1532 1531 1531 1531 1530 1530 1529 1529 1529 1528 1527 1527 1526 1526 1525 1524 1524 1523 1523 1522 1521 1521 1520 1519 1518 1517 1515 1514 1513 1513 1512 1511 1511 1510 1509 1509 1508 1507 1506 1504 1503 1502 1500
1527 1528 1529 1529 1529 1529 1529 1529 1529 1529 1529 1529 1530 1530 1530 1531 1531 1531 1531 1531 1531 1532 1532 1532 1531 1531 1531 1530 1530 1530 1529 1529 1529 1528 1527 1527 1526 1526 1525 1524 1524 1523 1522 1522 1521 1521 1520 1519 1518 1517 1516 1515 1514 1513 1513 1512 1511 1510 1510 1509 1509 1508 1507 1506 1504 1503 1502 1500 1499
1524 1526 1527 1528 1528 1528 1528 1528 1529 1529 1529 1529 1530 1530 1530 1530 1530 1530 1530 1530 1530 1531 1531 1531 1530 1530 1530 1529 1529 1529 1528 1528 1527 1527 1526 1525 1524 1524 1524 1523 1522 1522 1521 1521 1520 1519 1519 1518 1517 1516 1515 1514 1514 1513 1512 1511 1510 1509 1509 1508 1507 1507 1505 1504 1503 1502 1500 1499 1498
1523 1524 1525 1526 1526 1527 1527 1528 1528 1529 1529 1529 1529 1529 1529 1529 1529 1529 1529 1529 1530 1530 1530 1530 1529 1529 1529 1528 1528 1527 1527 1526 1526 1525 1524 1524 1523 1522 1522 1521 1521 1521 1520 1519 1519 1518 1517 1517 1516 1515 1514 1514 1513 1512 1511 1510 1509 1509 1508 1507 1506 1505 1504 1503 1501 1500 1499 1498 1497
1522 1523 1524 1524 1525 1525 1526 1527 1528 1528 1528 1529 1529 1529 1529 1529 1528 1529 1529 1529 1529 1529 1529 1529 1528 1528 1528 1527 1526 1526 1525 1525 1524 1523 1523 1522 1521 1521 1520 1520 1519 1519 1519 1518 1518 1517 1516 1516 1515 1514 1513 1512 1511 1511 1510 1509 1508 1508 1507 1506 1505 1504 1502 1501 1500 1499 1498 1496 1495
1522 1522 1522 1523 1524 1524 1525 1526 1527 1527 1528 1528 1528 1528 1528 1528 1528 1528 1528 1528 1528 1528 1528 1528 1527 1527 1526 1525 1525 1524 1524 1523 1522 1522 1521 1520 1520 1519 1519 1519 1518 1518 1517 1516 1516 1515 1515 1514 1514 1513 1512 1511 1510 1509 1509 1508 1507 1506 1505 1504 1503 1502 1501 1500 1499 1498 1497 1495 1494
1521 1521 1521 1522 1522 1523 1524 1525 1526 1526 1526 1526 1526 1527 1527 1527 1527 1527 1528 1527 1527 1527 1527 1526 1526 1525 1524 1524 1524 1523 1522 1522 1521 1520 1519 1519 1518 1518 1518 1517 1517 1516 1516 1515 1514 1514 1513 1513 1512 1511 1510 1509 1509 1508 1507 1507 1506 1505 1504 1503 1502 1501 1499 1499 1497 1496 1495 1494 1494
1521 1521 1521 1521 1522 1523 1524 1524 1525 1525 1524 1524 1525 1525 1526 1526 1527 1527 1527 1526 1526 1525 1525 1525 1524 1524 1523 1523 1522 1521 1520 1520 1519 1519 1518 1517 1517 1516 1516 1516 1515 1515 1514 1514 1513 1513 1512 1511 1511 1510 1509 1508 1508 1507 1506 1505 1505 1504 1503 1502 1501 1499 1499 1497 1496 1495 1494 1494 1493
1520 1520 1521 1521 1522 1522 1523 1524 1524 1524 1523 1523 1523 1524 1524 1525 1525 1525 1525 1524 1524 1524 1524 1523 1523 1522 1522 1521 1520 1519 1519 1518 1518 1517 1516 1516 1515 1515 1515 1514 1514 1514 1513 1513 1512 1511 1511 1510 1509 1509 1508 1507 1506 1506 1505 1504 1504 1503 1502 1501 1499 1498 1497 1496 1495 1494 1494 1493 1492
1519 1520 1520 1521 1521 1522 1522 1523 1523 1523 1523 1523 1523 1523 1524 1524 1524 1524 1524 1523 1522 1522 1522 1521 1521 1520 1520 1519 1519 1518 1518 1517 1516 1515 1515 1514 1514 1514 1514 1513 1513 1512 1512 1511 1511 1510 1510 1509 1508 1508 1507 1506 1505 1504 1504 1504 1503 1502 1500 1499 1499 1497 1496 1495 1494 1494 1493 1492 1491
1518 1519 1519 1520 1521 1521 1522 1522 1522 1523 1523 1523 1523 1523 1523 1523 1523 1522 1522 1521 1521 1520 1520 1520 1519 1519 1518 1518 1517 1517 1516 1515 1515 1514 1514 1513 1513 1513 1512 1512 1512 1511 1511 1510 1510 1509 1509 1508 1507 1506 1506 1505 1504 1504 1503 1503 1502 1501 1499 1499 1498 1496 1495 1494 1494 1493 1492 1491 1490
1517 1518 1519 1520 1520 1521 1521 1521 1522 1522 1523 1523 1523 1523 1522 1522 1521 1521 1520 1520 1519 1519 1519 1518 1518 1517 1517 1516 1516 1515 1514 1514 1513 1513 1512 1512 1512 1511 1511 1511 1510 1510 1509 1509 1509 1508 1508 1507 1506 1505 1504 1504 1503 1503 1502 1501 1500 1499 1499 1498 1497 1495 1494 1494 1493 1492 1491 1490 1489
1517 1518 1519 1519 1519 1520 1520 1520 1521 1521 1522 1522 1522 1522 1521 1520 1520 1519 1519 1518 1518 1517 1517 1516 1516 1515 1515 1514 1514 1514 1513 1513 1512 1511 1511 1511 1510 1510 1510 1509 1509 1509 1508 1508 1508 1507 1506 1506 1505 1504 1503 1503 1502 1502 1501 1500 1500 1499 1498 1497 1496 1495 1494 1493 1492 1491 1490 1489 1488
1516 1517 1518 1518 1519 1519 1519 1519 1520 1520 1520 1521 1520 1520 1519 1519 1518 1518 1517 1517 1516 1516 1515 1515 1514 1514 1514 1513 1513 1512 1512 1511 1511 1510 1510 1509 1509 1509 1509 1509 1508 1508 1507 1507 1506 1506 1505 1505 1504 1503 1502 1502 1501 1501 1500 1499 1499 1498 1497 1496 1495 1494 1493 1492 1491 1490 1489 1488 1487
1515 1516 1517 1517 1518 1518 1518 1519 1519 1519 1519 1519 1519 1518 1518 1517 1516 1516 1516 1515 1515 1515 1514 1514 1513 1513 1512 1512 1511 1510 1510 1510 1509 1509 1509 1509 1508 1508 1508 1507 1507 1507 1506 1506 1505 1505 1504 1504 1503 1502 1501 1501 1500 1500 1499 1499 1498 1497 1496 1495 1494 1493 1492 1491 1490 1489 1488 1487 1486
1515 1515 1516 1517 1517 1517 1517 1518 1518 1518 1518 1518 1517 1517 1516 1515 1515 1514 1514 1514 1514 1513 1513 1512 1512 1511 1511 1510 1510 1509 1509 1508 1508 1508 1508 1507 1507 1507 1506 1506 1506 1505 1505 1505 1504 1504 1503 1502 1502 1501 1500 1500 1499 1499 1498 1498 1497 1496 1495 1494 1493 1492 1491 1490 1489 1489 1488 1487 1486
1514 1515 1516 1516 1516 1516 1516 1516 1517 1516 1516 1516 1515 1515 1514 1514 1514 1513 1513 1513 1512 1512 1512 1511 1511 1510 1509 1509 1508 1508 1507 1507 1506 1506 1506 1506 1506 1505 1505 1505 1504 1504 1504 1504 1503 1502 1502 1501 1501 1500 1499 1499 1499 1498 1497 1497 1496 1495 1494 1493 1493 1492 1491 1489 1489 1488 1487 1486 1485
1514 1514 1515 1515 1515 1515 1515 1515 1515 1515 1515 1514 1514 1514 1513 1513 1512 1512 1511 1511 1511 1510 1510 1510 1509 1509 1508 1508 1507 1507 1506 1506 1505 1505 1505 1504 1504 1504 1504 1504 1503 1503 1503 1502 1502 1501 1501 1500 1499 1499 1499 1498 1498 1497 1496 1496 1495 1494 1493 1493 1492 1491 1490 1489 1488 1487 1486 1485 1484
1514 1514 1514 1514 1514 1514 1514 1514 1514 1514 1514 1513 1513 1512 1512 1511 1511 1510 1510 1510 1509 1509 1509 1509 1508 1508 1507 1506 1506 1505 1505 1505 1504 1504 1504 1503 1503 1503 1503 1502 1502 1502 1501 1501 1500 1500 1499 1499 1498 1498 1497 1497 1496 1496 1495 1494 1494 1493 1492 1492 1491 1490 1489 1488 1487 1486 1485 1484 1483
1513 1513 1513 1513 1513 1513 1513 1513 1512 1512 1512 1512 1511 1511 1510 1510 1509 1509 1509 1509 1508 1508 1508 1507 1507 1506 1506 1505 1505 1504 1504 1504 1503 1503 1502 1502 1502 1501 1501 1501 1500 1500 1500 1499 1499 1499 1498 1498 1497 1497 1496 1496 1495 1495 1494 1494 1493 1492 1491 1491 1490 1489 1488 1487 1486 1485 1484 1483 1482
1511 1512 1512 1512 1512 1511 1511 1511 1511 1511 1511 1510 1510 1509 1509 1509 1508 1508 1508 1507 1507 1507 1506 1506 1505 1505 1504 1504 1504 1503 1503 1502 1502 1502 1501 1501 1500 1500 1500 1499 1499 1499 1499 1498 1498 1497 1497 1496 1496 1496 1495 1495 1494 1494 1493 1492 1492 1491 1490 1490 1489 1488 1487 1486 1485 1484 1483 1482 1481
1510 1510 1510 1510 1510 1510 1510 1510 1510 1509 1509 1509 1508 1508 1508 1507 1507 1507 1506 1506 1506 1505 1505 1504 1504 1503 1503 1503 1502 1502 1502 1501 1501 1500 1500 1500 1499 1499 1499 1498 1498 1498 1497 1497 1496 1496 1496 1495 1495 1494 1494 1493 1493 1493 1492 1491 1490 1490 1489 1489 1488 1488 1487 1486 1484 1484 1483 1482 1481
Wind_Speed
21 21 21 21 21 21 20 20 20 19 19 18 17 16 16 16 17 16 15 14 13 14 17 19 20 18 15 13 12 13 13 14 15 16 16 17 17 18 19 19 19 18 17 16 15 15 15 16 17 18 20 20 20 19 18 17 16 15 15 15 15 15 16 16 17 17 18 18 19
22 22 22 22 21 21 21 21 21 20 19 18 17 16 16 16 16 15 14 14 15 17 18 19 18 14 11 10 11 12 13 14 15 16 17 18 19 19 19 19 18 17 16 15 15 15 16 17 18 19 20 20 20 18 17 15 15 15 15 15 15 16 16 17 17 18 18 19 20
23 23 23 23 23 23 23 22 22 20 19 18 17 16 16 15 15 15 15 16 18 19 18 16 13 10 8 9 11 12 13 15 16 17 17 18 19 19 18 17 17 16 16 16 16 16 17 18 19 20 20 20 19 17 16 15 15 16 16 16 16 16 17 17 18 18 19 20 21
23 23 23 24 24 24 23 22 21 20 19 17 16 16 16 15 15 16 17 19 19 18 15 11 9 7 8 10 12 13 15 15 16 17 17 18 17 17 16 16 15 15 16 16 16 17 18 19 20 20 20 20 18 17 16 16 16 16 16 16 17 17 17 18 18 19 20 21 22
24 24 24 24 23 22 21 20 20 19 18 17 16 16 16 16 16 17 18 18 17 14 11 8 7 7 9 11 12 14 15 16 16 16 16 16 16 15 15 15 15 15 16 16 17 18 18 19 20 21 20 19 18 17 17 17 17 16 16 16 17 18 18 19 19 20 21 22 22
24 24 23 23 22 21 20 19 18 18 17 16 16 16 16 16 16 17 16 15 13 10 8 6 7 8 10 12 13 14 15 15 15 15 16 16 15 15 15 15 15 16 16 17 17 18 19 20 21 21 20 19 18 18 17 17 16 16 16 17 18 19 20 20 20 21 22 22 22
23 23 22 22 21 20 20 19 18 18 17 16 16 16 16 16 16 15 14 13 11 9 7 7 8 9 11 12 13 14 14 15 15 16 16 16 16 15 15 15 16 16 17 17 18 19 20 20 21 21 20 19 18 17 17 16 16 16 17 18 19 19 20 21 21 22 22 23 23
23 22 22 21 21 20 20 19 19 18 18 17 16 16 16 16 15 15 14 12 10 8 8 8 9 10 11 12 13 14 14 15 16 16 16 16 16 16 16 16 17 17 18 18 19 20 20 21 21 21 20 19 18 17 16 16 17 17 18 19 20 21 21 21 22 23 23 23 23
22 22 21 21 21 20 20 20 19 19 18 17 17 16 16 16 15 14 13 10 9 9 9 9 10 11 11 12 13 14 15 16 16 17 17 17 16 16 16 17 17 18 19 19 20 21 21 21 21 21 20 19 18 17 17 17 17 18 19 19 20 21 21 22 22 23 23 22 22
22 22 21 21 21 21 21 20 20 19 18 17 17 17 16 16 15 14 12 10 10 9 9 10 10 11 11 12 14 15 16 17 17 17 17 17 17 17 17 17 18 19 20 20 21 21 22 21 21 20 19 18 18 17 17 17 18 18 19 20 21 22 22 22 22 22 22 22 22
22 22 22 22 22 21 21 21 20 19 18 17 17 17 17 16 14 13 11 11 10 10 10 10 10 11 12 13 14 15 16 17 17 17 17 17 17 17 18 18 19 20 20 21 22 22 22 21 21 20 19 18 18 18 18 19 19 19 20 21 22 23 23 23 23 23 23 24 24
22 22 22 22 22 21 21 20 20 19 18 17 17 17 16 15 13 12 11 11 10 10 11 10 10 11 12 14 15 16 16 17 17 17 17 17 17 18 18 19 20 20 21 21 22 22 21 21 20 19 18 18 18 19 19 20 20 21 21 22 22 23 24 24 25 25 25 25 25
23 22 22 22 21 21 20 20 19 19 18 17 17 16 14 13 12 12 11 11 11 11 10 10 10 12 13 14 15 15 16 16 16 16 17 17 18 18 19 20 20 21 21 22 22 21 21 20 19 19 19 19 19 20 20 21 21 22 22 22 24 25 25 26 26 26 25 25 26
23 23 22 22 21 20 19 19 18 18 17 16 15 14 13 12 12 12 11 11 11 10 10 10 11 12 14 14 15 15 15 15 15 16 16 17 18 18 19 20 21 21 21 21 21 20 20 19 19 19 20 20 20 21 21 22 22 22 23 24 25 26 26 26 25 25 25 25 26
24 23 22 22 21 20 19 18 18 17 16 15 13 12 11 11 12 12 11 10 10 10 10 10 12 13 14 15 14 14 14 14 15 15 16 17 18 19 19 20 21 21 21 20 20 20 20 20 20 20 21 21 22 22 23 23 24 24 24 24 25 25 25 24 24 24 25 26 27
24 23 22 21 20 19 18 18 17 16 15 13 12 11 11 11 12 11 11 10 10 9 10 11 13 14 14 14 14 14 14 14 14 15 16 17 18 18 19 20 20 20 20 20 20 20 20 20 21 22 22 22 23 24 24 25 26 26 25 24 24 23 24 24 24 24 25 27 28
23 22 21 20 19 18 18 17 16 15 13 12 12 11 11 11 11 11 10 10 9 9 10 12 13 14 14 14 14 14 14 14 15 16 16 17 18 18 19 19 20 20 20 20 20 20 21 21 22 23 23 24 24 26 27 27 27 26 25 23 23 23 23 23 24 24 26 27 28
22 21 20 20 19 18 17 17 16 14 13 12 11 11 11 11 11 11 10 10 10 10 11 12 13 14 14 14 14 14 15 15 16 16 17 17 18 18 18 19 19 19 20 20 20 21 21 22 23 24 25 25 26 28 28 29 27 25 23 22 22 22 22 22 23 24 26 27 28
21 21 20 19 18 17 17 16 15 13 12 11 10 10 10 10 10 11 11 11 11 11 12 13 13 14 14 14 15 15 15 16 16 16 17 17 18 18 18 18 18 19 20 20 21 21 22 23 24 25 26 27 28 29 29 27 24 22 20 20 21 21 21 22 23 25 26 27 28
21 20 19 18 17 16 16 15 14 12 11 10 10 9 10 10 11 11 11 11 11 12 12 13 14 14 15 15 15 16 16 16 17 17 17 18 18 18 18 18 18 19 20 20 21 21 22 23 25 26 28 29 30 29 27 23 21 19 19 19 19 20 20 22 24 26 27 27 27
22 20 19 18 17 16 15 14 13 11 10 10 10 10 10 11 12 12 12 11 11 12 13 14 14 15 16 16 17 17 17 17 17 18 18 19 19 19 19 19 19 19 20 20 20 21 22 24 26 28 29 30 30 27 23 20 19 19 18 18 18 20 21 24 25 26 27 27 26
22 20 19 18 17 16 15 13 12 11 10 10 10 10 11 12 12 12 12 12 12 12 13 15 15 16 17 17 17 18 18 18 18 18 19 20 20 20 20 19 19 19 19 20 21 22 24 25 26 28 29 29 27 23 20 18 18 18 17 18 19 21 23 25 26 26 26 25 24
21 20 19 19 17 16 14 13 12 11 10 10 10 11 12 13 13 13 13 12 12 13 14 15 16 17 17 17 18 18 18 18 19 19 20 21 21 21 21 20 19 19 19 20 22 23 24 25 26 27 28 26 23 20 18 18 17 17 17 19 21 23 25 26 26 25 24 24 23
20 20 19 18 17 15 14 12 12 11 11 11 11 12 13 14 14 14 13 13 13 14 15 16 17 17 18 18 18 18 19 19 20 20 21 21 21 21 20 19 19 19 20 21 22 22 23 24 26 27 26 24 20 18 17 17 17 17 18 21 23 24 25 25 25 24 23 22 22
20 20 19 18 16 15 14 13 12 12 12 12 13 14 14 14 14 14 13 13 14 15 16 17 17 18 18 18 19 19 20 20 20 21 21 21 20 20 19 19 19 19 20 22 23 23 24 25 26 26 24 21 18 17 17 17 17 18 20 22 24 25 25 24 23 22 22 22 22
20 20 19 17 16 15 14 13 13 13 13 13 14 15 15 15 14 13 13 14 15 16 17 18 18 19 19 20 20 21 21 20 20 20 21 21 20 20 19 19 19 20 21 22 23 24 25 25 25 24 21 18 17 17 17 17 18 19 21 23 24 24 24 23 22 21 21 21 21
20 19 17 16 15 15 14 13 14 14 15 15 15 16 16 16 15 14 14 15 17 18 18 19 19 20 21 21 21 21 21 20 20 20 20 20 20 20 20 19 19 20 21 23 24 25 25 25 24 21 18 16 16 16 16 17 18 20 22 24 24 24 23 22 21 21 21 21 21
20 18 17 16 15 15 14 15 15 16 16 16 16 16 16 15 14 15 16 17 18 18 19 19 20 21 21 21 21 21 20 20 20 20 21 21 21 20 20 19 20 21 22 23 24 25 24 23 21 18 16 16 16 16 16 17 19 21 23 23 24 23 22 21 21 21 21 21 21
19 18 17 16 15 15 15 16 16 17 17 17 16 16 15 14 15 16 17 18 19 19 19 20 20 21 21 21 20 20 19 20 20 21 21 21 21 20 20 19 20 21 22 23 24 24 23 21 18 17 16 16 16 15 16 17 20 22 23 23 23 22 22 21 21 21 21 21 20
19 18 16 16 16 16 16 17 17 17 17 16 16 15 14 14 15 17 18 19 19 19 19 20 20 21 20 20 20 19 19 20 20 21 22 22 21 20 19 19 20 21 22 22 23 22 21 18 17 16 16 16 15 15 16 18 20 22 23 23 23 22 22 21 21 21 21 20 20
18 17 16 16 16 17 17 17 16 16 16 16 15 15 15 15 17 18 19 18 18 19 19 20 20 20 20 19 19 19 20 20 21 22 21 21 20 19 18 19 19 20 21 21 21 20 18 17 16 16 16 15 15 15 16 18 20 22 23 23 23 22 22 21 21 21 21 20 20
18 17 17 17 17 17 17 16 16 16 16 15 15 15 16 17 18 19 19 18 18 18 19 19 19 19 19 19 19 20 20 21 21 21 20 19 18 18 18 18 19 19 20 19 19 18 17 17 17 16 16 15 15 16 17 18 20 21 22 23 23 22 22 21 21 21 21 20 20
18 17 17 17 17 16 16 15 15 15 15 15 16 17 18 19 20 19 19 18 18 18 18 18 18 18 18 19 20 21 21 21 20 19 18 17 16 16 17 17 18 18 18 18 17 17 17 17 17 16 15 15 15 16 17 18 20 21 22 23 23 22 22 21 21 21 21 20 20
18 17 17 17 16 15 15 15 15 15 16 17 18 19 20 20 20 19 18 18 18 18 18 18 18 18 19 20 20 21 21 20 19 17 16 15 15 15 16 17 17 17 17 17 17 17 18 18 17 16 15 15 15 16 17 19 20 21 22 22 22 22 22 22 21 21 21 20 20
17 17 16 15 15 14 15 15 15 16 17 18 19 20 20 19 19 18 17 17 17 17 17 17 18 18 19 20 21 21 21 20 18 17 15 15 15 15 16 16 17 17 17 17 17 18 18 18 17 15 15 15 15 16 18 19 20 21 21 22 22 22 22 22 22 21 21 20 20
16 15 15 14 14 14 15 15 16 17 18 19 20 19 19 18 17 17 16 16 16 16 17 17 18 19 20 20 20 19 18 17 16 16 15 15 15 16 16 17 17 17 17 18 18 18 18 17 15 14 14 15 16 17 18 19 20 21 21 21 21 22 22 22 22 21 21 20 20
15 14 14 14 14 15 15 16 17 18 19 19 19 18 17 16 16 16 16 16 16 16 17 18 19 19 20 19 18 17 16 16 15 15 15 15 16 16 17 17 18 18 18 18 18 17 16 15 14 14 15 16 17 18 19 20 20 20 20 20 21 21 22 22 22 21 21 20 20
14 14 14 14 15 15 16 17 18 18 18 18 17 16 16 15 15 15 15 16 16 17 18 18 19 19 19 19 17 16 15 15 15 15 15 16 16 16 17 18 18 18 18 18 17 16 15 14 14 15 15 17 17 18 19 20 20 20 20 20 20 21 22 22 22 21 21 20 20
13 14 14 15 15 16 17 17 17 17 17 16 15 15 15 15 15 15 16 16 17 18 18 19 19 19 19 18 16 15 14 14 15 15 16 16 16 17 17 18 19 19 18 17 16 15 14 14 15 16 17 17 18 19 20 20 20 20 20 20 20 21 21 21 21 21 21 20 20
14 14 15 16 16 17 17 16 16 16 15 15 15 15 15 15 15 16 16 17 17 18 19 19 19 19 18 17 15 14 14 14 15 15 16 16 16 17 18 18 19 18 17 16 15 15 14 15 16 17 18 19 19 20 20 20 20 20 20 20 20 21 21 21 21 21 20 20 19
14 15 16 16 17 16 16 15 15 15 15 15 15 15 16 16 16 16 17 17 18 19 19 20 19 18 17 16 15 15 14 14 15 15 16 16 17 17 18 19 19 18 17 16 16 15 16 16 17 18 19 20 20 20 20 20 20 20 20 20 20 20 20 20 20 20 20 19 19
Wind_Direction
227 228 227 226 225 223 221 218 217 218 220 222 225 229 233 237 237 238 241 246 256 269 280 288 294 295 290 280 271 271 279 289 296 301 302 304 306 309 312 315 318 320 323 325 326 327 326 326 325 324 323 322 320 319 317 317 317 318 319 320 319 319 320 320 319 319 319 318 319
228 227 226 224 222 220 218 215 215 216 219 222 227 233 237 238 237 238 243 253 265 275 283 289 292 291 282 270 268 276 287 296 301 303 304 306 308 310 313 315 318 322 324 326 326 325 323 322 322 321 321 320 319 318 317 316 317 318 319 320 320 320 320 320 319 319 318 318 318
227 225 223 221 220 219 218 217 217 219 221 225 229 233 235 236 236 240 250 263 274 281 285 287 287 281 272 270 278 289 297 302 304 305 306 308 310 312 315 318 321 324 326 326 325 323 321 319 319 319 320 320 319 318 316 317 318 320 321 321 322 322 321 319 317 317 317 316 317
223 222 220 219 219 219 220 221 222 224 226 227 229 230 230 232 238 248 261 273 280 284 285 285 283 276 274 280 289 297 302 303 304 306 308 310 313 316 319 322 324 326 327 326 324 321 319 318 318 319 319 319 319 318 318 319 322 323 324 324 324 322 320 317 315 315 314 314 315
220 219 218 218 219 220 222 223 225 225 225 225 224 225 228 235 246 259 271 279 282 283 284 287 284 281 283 288 294 299 301 302 304 306 310 314 316 320 323 325 327 328 328 326 324 321 319 318 318 319 319 319 319 319 321 323 325 325 324 323 322 321 318 316 314 313 313 313 313
218 218 218 219 220 221 222 223 223 223 222 222 223 228 236 246 258 269 277 282 284 287 289 288 285 284 286 290 294 296 297 299 303 307 312 316 319 322 325 327 328 329 328 327 324 322 321 320 320 320 320 320 320 321 323 325 325 324 323 321 320 319 317 315 313 312 311 310 310
221 220 219 220 221 222 222 222 221 221 223 226 231 240 250 260 269 277 284 289 294 295 290 282 279 282 285 289 292 294 296 299 304 309 313 317 320 322 324 326 328 329 329 327 326 324 323 322 321 321 320 320 320 321 322 323 322 321 320 319 319 318 316 314 312 310 309 308 308
222 222 223 224 224 224 223 223 223 224 227 234 243 252 261 270 278 285 292 297 299 294 284 275 275 280 285 289 292 295 298 301 306 310 314 317 319 321 322 324 326 327 327 327 326 324 324 323 322 321 320 320 319 319 319 319 318 317 317 317 316 315 313 311 310 309 307 306 306
222 224 225 226 226 225 224 225 226 229 234 243 252 260 268 277 285 292 297 297 294 287 278 273 276 282 288 292 295 298 300 303 307 311 314 317 318 320 321 322 323 324 324 324 324 323 323 323 322 321 320 318 317 316 314 314 313 313 314 314 313 312 310 308 307 306 305 304 305
224 225 226 227 227 227 227 228 231 235 242 251 258 266 274 282 290 295 296 293 288 281 275 276 280 286 292 295 297 300 302 305 307 311 313 316 317 318 318 319 320 320 321 321 321 321 321 321 320 319 317 315 313 311 309 309 309 309 310 310 310 309 307 305 304 304 303 303 303
228 229 229 229 229 230 231 233 236 242 248 256 265 273 280 287 292 294 294 291 283 277 275 278 283 289 294 296 298 300 302 305 308 310 312 314 315 315 315 316 316 317 317 317 318 318 318 318 318 316 314 311 308 306 304 304 304 304 305 306 308 307 306 304 304 303 302 303 303
232 232 232 232 233 234 235 238 242 248 254 262 270 278 284 288 291 292 290 286 279 276 277 280 286 291 295 297 299 301 303 305 307 309 311 311 312 312 312 313 314 314 314 314 315 315 315 315 314 312 309 306 303 302 301 300 299 300 302 305 307 307 306 305 304 304 304 305 305
235 235 234 234 235 236 238 242 247 253 260 267 275 282 286 287 289 289 286 281 277 276 277 282 288 294 297 298 300 301 303 304 305 307 308 308 308 309 310 311 312 312 312 312 312 312 312 311 309 307 305 302 301 300 299 298 297 298 300 304 307 308 307 306 306 306 307 308 309
236 235 234 235 236 238 241 245 251 257 264 271 278 283 284 285 285 284 281 277 274 273 277 284 291 295 297 298 299 300 301 302 302 303 304 305 306 307 308 309 310 309 309 309 309 308 307 306 305 304 303 302 301 300 298 297 295 296 298 303 307 308 308 307 307 307 308 310 314
235 234 233 234 236 238 242 246 252 259 266 272 274 275 275 276 278 276 273 270 268 270 276 284 291 294 296 296 297 298 298 298 299 300 301 303 305 306 307 308 308 307 306 306 305 304 303 302 302 302 302 301 300 299 297 295 294 294 296 301 305 307 306 306 306 308 311 315 319
232 232 232 233 235 238 242 247 253 259 264 267 267 266 266 268 270 269 266 263 264 269 277 286 291 294 295 295 295 295 295 296 297 299 301 303 305 306 306 306 305 304 302 301 300 299 299 300 300 300 300 299 298 296 295 293 292 292 295 300 304 305 304 304 306 309 314 319 322
229 229 231 234 236 239 243 248 254 258 260 260 261 261 261 261 264 264 262 259 262 270 280 288 293 294 293 292 292 293 294 296 298 300 302 304 305 305 305 304 302 300 298 296 295 296 297 298 298 298 298 296 295 294 293 291 290 292 296 303 305 304 303 304 307 312 317 321 323
228 230 233 236 238 241 245 249 254 257 258 256 256 257 257 256 256 257 258 258 262 272 282 290 292 292 290 290 290 292 294 297 299 302 303 304 304 304 303 301 299 296 293 292 292 293 294 295 296 295 294 293 292 292 291 289 290 294 301 307 306 304 303 305 310 316 320 322 322
230 232 235 237 240 243 247 250 254 255 254 252 253 254 253 251 251 253 256 261 267 275 285 290 290 288 287 288 289 291 294 296 298 300 301 302 301 301 300 298 295 292 289 289 290 290 291 292 293 292 292 291 291 290 289 289 293 301 307 308 306 304 305 309 315 319 322 322 322
232 234 237 240 243 246 249 251 251 250 250 250 253 254 252 252 257 257 257 260 267 277 286 289 287 284 284 285 287 290 292 293 296 297 298 299 299 299 298 296 292 288 287 288 289 290 290 291 291 292 292 291 290 288 289 294 302 309 311 308 305 306 309 314 318 321 322 322 321
232 234 237 241 244 248 249 249 247 247 249 254 254 254 254 255 256 255 253 256 265 277 286 287 283 281 281 283 285 287 289 291 293 295 296 297 298 298 297 296 293 290 289 289 290 291 292 293 294 295 295 292 289 290 296 305 312 313 311 308 308 311 314 318 320 321 322 322 321
230 233 236 240 244 246 245 243 244 246 250 250 250 251 251 251 250 247 247 253 266 280 286 286 283 281 281 282 284 286 288 290 292 293 295 296 297 298 298 297 297 295 294 293 295 297 297 298 299 299 296 292 292 297 307 315 317 315 312 311 313 315 318 320 321 322 322 322 322
229 231 234 238 240 240 237 236 240 242 242 243 245 246 245 242 242 242 246 256 272 283 288 287 284 282 282 283 285 286 289 291 293 294 295 296 297 298 299 300 301 301 300 301 301 302 302 303 304 301 297 293 296 305 315 320 320 317 314 314 316 318 320 322 322 322 322 322 323
227 230 232 235 234 230 224 224 229 232 234 238 242 241 239 237 237 241 250 264 279 287 289 287 285 283 283 284 286 287 289 292 294 295 296 296 297 299 300 303 304 305 306 307 306 306 306 307 306 303 299 297 302 312 320 322 321 318 316 317 319 321 323 323 323 323 323 323 324
226 228 229 229 225 218 213 215 221 225 230 235 237 237 236 236 238 246 258 275 286 290 290 287 285 284 284 285 286 288 290 292 293 295 295 296 297 299 302 305 307 308 309 311 311 310 308 309 307 304 300 299 306 316 322 323 321 319 319 321 323 324 325 325 324 324 324 324 325
225 225 224 223 217 212 211 217 221 225 229 232 233 233 235 239 245 255 269 283 290 291 290 287 285 284 285 286 288 289 291 292 292 293 294 295 297 300 303 305 307 309 310 312 312 311 309 308 306 303 300 303 313 322 325 324 322 322 323 325 326 327 327 326 326 325 325 326 326
222 222 221 219 217 213 212 217 222 225 226 228 229 233 238 246 253 265 278 287 291 292 290 287 286 285 286 288 289 290 291 291 292 292 293 294 297 300 303 305 307 308 310 312 312 311 310 308 304 302 304 312 321 326 327 325 324 325 327 329 329 329 328 327 326 326 326 326 326
221 221 220 217 213 213 217 220 221 222 225 228 231 236 242 250 261 273 284 289 292 292 290 288 287 287 289 290 290 291 291 291 291 292 293 294 296 299 301 304 306 307 309 310 311 311 309 306 303 304 310 320 326 327 326 325 326 328 330 331 331 330 329 328 327 326 326 326 327
221 221 217 214 214 216 217 217 220 224 228 233 238 243 249 258 269 279 287 291 293 292 290 288 288 288 289 290 290 290 290 290 291 292 293 295 296 299 301 303 304 306 308 310 310 309 307 304 303 309 317 323 326 326 325 325 328 330 332 333 332 331 330 328 327 327 326 326 326
218 215 213 213 214 214 215 218 223 229 236 242 246 250 256 266 276 284 290 293 294 293 290 289 288 289 289 289 290 290 290 290 291 292 294 296 298 299 301 303 305 307 309 310 310 308 305 303 308 315 321 323 324 324 324 326 329 331 333 333 333 332 330 329 328 327 327 326 326
213 213 213 214 213 213 216 221 229 238 244 249 252 257 265 275 282 288 292 293 293 291 289 288 288 289 289 289 289 289 290 291 292 294 295 297 299 300 302 304 306 308 310 311 310 308 307 309 315 319 321 323 323 322 323 326 329 332 333 333 333 332 331 330 329 328 327 326 326
213 213 214 213 212 215 220 229 239 246 250 253 258 265 273 280 286 289 291 292 291 290 289 288 289 289 289 289 289 290 290 292 294 295 297 299 300 302 304 306 308 310 311 311 310 310 311 315 318 320 322 323 322 321 323 326 329 331 332 333 333 332 332 330 329 328 327 326 326
213 213 212 212 214 220 230 241 250 254 255 257 263 270 276 282 286 289 291 291 291 289 289 289 289 289 289 289 290 291 292 294 296 298 299 300 301 302 304 307 310 311 312 311 311 312 314 317 318 320 321 321 321 321 323 325 327 328 330 331 332 332 332 331 330 328 327 326 325
210 210 211 213 220 231 243 254 259 260 261 263 267 272 276 281 286 289 290 291 291 290 289 289 289 289 289 290 291 293 295 297 298 299 299 299 299 301 304 308 310 311 311 311 312 313 315 316 317 318 319 320 321 322 323 324 324 325 327 329 331 332 332 331 330 328 327 326 325
208 209 213 220 231 245 256 263 265 266 266 268 270 273 277 282 286 290 291 291 291 290 289 288 288 289 290 291 293 295 297 299 300 300 299 298 299 301 305 308 310 311 311 311 312 313 314 314 314 315 317 320 322 323 322 322 322 322 324 326 329 330 331 331 330 328 326 325 324
208 213 220 232 245 257 265 269 270 270 269 269 272 275 279 285 289 291 291 291 290 288 287 287 288 289 290 292 295 296 298 299 299 299 298 298 300 303 306 308 309 310 310 310 311 311 311 311 312 314 317 320 322 322 321 320 319 319 321 323 326 328 330 330 329 328 326 325 323
213 221 233 246 257 265 270 272 272 271 270 271 274 278 283 288 290 291 290 289 288 287 286 287 288 289 291 293 295 296 297 297 297 296 296 298 300 303 305 307 308 309 309 309 309 309 309 310 311 314 317 320 321 320 319 317 316 316 317 320 323 326 328 328 328 327 325 324 323
223 234 246 257 265 270 273 273 272 272 272 274 278 283 287 289 290 290 288 287 286 286 286 288 289 290 292 293 294 295 294 293 293 293 294 296 298 301 303 305 307 307 308 308 308 309 309 311 313 315 317 319 319 317 315 313 313 313 314 317 320 323 325 327 327 326 325 323 323
233 244 255 264 270 273 274 274 273 273 274 278 282 285 288 289 289 288 287 287 286 287 288 289 290 292 292 293 293 292 291 290 291 292 293 295 297 300 302 304 305 306 307 307 308 309 311 312 313 315 316 316 315 313 311 310 310 310 312 314 316 319 322 324 325 325 324 323 322
242 252 262 269 273 274 274 273 273 274 277 281 284 287 288 288 288 287 286 286 286 287 289 290 291 292 292 291 289 288 287 287 288 291 293 295 296 299 300 302 303 305 306 307 309 310 311 312 313 313 313 312 311 309 308 308 308 308 309 311 313 316 319 322 323 324 324 323 323
252 262 268 272 273 272 271 271 273 276 280 284 286 288 288 288 287 286 286 286 287 289 290 291 292 291 289 287 286 284 284 284 286 289 291 293 294 296 298 299 301 302 304 305 308 310 311 311 311 311 309 308 307 306 306 306 305 306 306 307 309 312 315 319 322 323 324 324 323